CDT,Max TemperatureF,Mean TemperatureF,Min TemperatureF,Max Dew PointF,MeanDew PointF,Min DewpointF,Max Humidity, Mean Humidity, Min Humidity, Max Sea Level PressureIn, Mean Sea Level PressureIn, Min Sea Level PressureIn, Max VisibilityMiles, Mean VisibilityMiles, Min VisibilityMiles, Max Wind SpeedMPH, Mean Wind SpeedMPH, Max Gust SpeedMPH,PrecipitationIn, CloudCover, Events, WindDirDegrees
2012-10-1,73,62,51,54,48,45,94,67,40,30.18,30.12,30.04,10,10,10,29,12,38,0.00,1,Thunderstorm,5
2012-10-2,78,61,44,50,45,43,93,61,28,30.18,30.07,29.94,10,10,10,15,7,21,0.00,0,,220
2012-10-3,84,68,51,52,48,43,88,60,23,29.98,29.94,29.89,10,10,10,16,10,21,0.00,0,,193
2012-10-4,62,53,44,52,39,32,88,60,39,30.32,30.20,29.96,10,10,7,37,15,50,0.00,3,,39
2012-10-5,68,54,41,43,41,36,93,68,40,30.23,30.17,30.08,10,10,10,22,7,31,0.00,2,,100
2012-10-6,50,46,39,36,30,27,65,58,53,30.32,30.24,30.20,10,10,10,22,14,29,0.00,8,,86
2012-10-7,48,40,33,30,29,25,87,66,43,30.33,30.25,30.17,10,10,10,13,6,18,0.00,4,,182
2012-10-8,75,52,30,43,34,28,93,61,24,30.21,30.08,29.93,10,10,10,20,9,28,0.00,0,,215
2012-10-9,84,64,44,43,34,21,87,44,10,30.17,29.98,29.91,10,10,10,24,11,29,0.00,0,,304
2012-10-10,62,50,39,45,40,36,93,68,51,30.31,30.21,30.13,10,10,10,17,11,24,0.00,2,,104
2012-10-11,82,64,46,59,53,45,94,70,37,30.15,30.11,30.05,10,9,5,20,10,23,0.00,2,,215
2012-10-12,71,60,48,63,57,45,100,83,60,30.29,30.13,30.01,10,10,3,21,12,28,0.37,4,Rain-Thunderstorm,143
2012-10-13,69,60,51,61,45,30,94,56,23,30.05,29.95,29.90,10,10,10,31,19,38,0.00,1,,253
2012-10-14,71,58,46,43,39,36,81,51,27,30.31,30.21,30.07,10,10,10,17,9,17,0.00,0,,329
2012-10-15,78,62,46,41,38,32,81,46,18,30.23,30.09,29.95,10,10,10,23,12,30,0.00,0,,221
2012-10-16,80,63,46,46,37,28,81,42,17,29.94,29.80,29.65,10,10,10,22,11,29,0.00,0,,251
2012-10-17,71,58,44,37,31,27,61,34,20,29.96,29.81,29.63,10,10,10,26,15,33,0.00,0,,32
2012-10-18,68,50,33,34,27,21,93,47,17,30.14,30.05,29.95,10,10,10,10,3,16,0.00,0,,186
2012-10-19,77,55,33,36,33,30,93,49,19,30.13,30.02,29.89,10,10,10,15,7,22,0.00,0,,205
2012-10-20,86,64,42,36,29,21,66,34,9,29.88,29.82,29.76,10,10,7,16,8,20,0.00,0,,261
2012-10-21,84,65,46,36,33,30,62,34,14,29.89,29.83,29.79,10,10,7,30,12,38,0.00,0,,246
2012-10-22,82,66,50,41,35,30,58,34,15,29.95,29.90,29.87,10,10,10,22,8,26,0.00,0,,231
2012-10-23,87,68,48,36,33,23,62,31,10,29.95,29.90,29.86,10,10,10,21,11,29,0.00,0,,227
2012-10-24,82,68,53,59,48,36,94,54,25,29.93,29.85,29.75,10,10,4,23,10,30,0.00,0,,215
2012-10-25,62,48,33,48,34,28,87,60,41,30.26,30.06,29.75,10,10,10,30,16,37,0.00,1,,29
2012-10-26,50,41,32,28,25,21,87,60,32,30.43,30.36,30.26,10,10,10,15,8,23,0.00,2,,43
2012-10-27,59,42,26,23,21,19,80,50,23,30.37,30.23,30.10,10,10,10,20,8,40,0.00,0,,195
2012-10-28,62,46,30,27,23,21,75,46,20,30.26,30.19,30.11,10,10,10,18,8,26,0.00,0,,197
2012-10-29,69,50,32,34,29,25,81,50,23,30.22,30.15,30.08,10,10,7,16,9,23,0.00,0,,200
2012-10-30,77,54,32,37,31,28,93,49,17,30.12,30.08,30.04,10,10,5,10,4,,0.00,0,,15
2012-10-31,78,56,35,36,31,27,87,48,15,30.17,30.12,30.07,10,10,7,16,5,22,0.00,0,,240